This demonstration page uses our WeatherBlox Daily Observations layout. Learn more.

Left ArrowRight Arrow

38.88101, -77.10428

Hourly Observations for August 27, 2020

Temp ( °F °C ) Dew Point ( °F °C ) Humidity (%) Winds ( mph kmh ) Pressure ( in mb ) Visibility ( mi km ) Precip ( " mm )
12:52 am 00:52 Cloudy 77 25 67 19.4 71 71 SSW 5 7 29.95 1014 10 16.0934 0 0
1:52 am 01:52 Cloudy 76 24.4 68 20 77 77 S 7 11 29.93 1014 10 16.0934 0 0
2:52 am 02:52 Mostly Cloudy 75 23.9 68 20 79 79 S 6 9 29.92 1013 10 16.0934 0 0
3:52 am 03:52 Mostly Cloudy 75 23.9 68 20 79 79 SSW 8 13 29.91 1013 10 16.0934 0 0
4:52 am 04:52 Partly Cloudy 75 23.9 69 20.6 82 82 SSW 6 9 29.91 1013 10 16.0934 0 0
5:52 am 05:52 Partly Cloudy 74 23.3 69 20.6 85 85 SSW 7 11 29.93 1014 10 16.0934 0 0
6:52 am 06:52 Partly Cloudy 75 23.9 70 21.1 84 84 S 7 11 29.94 1014 10 16.0934 0 0
7:52 am 07:52 Partly Cloudy 77 25 70 21.1 79 79 SSW 8 13 29.94 1014 10 16.0934 0 0
8:52 am 08:52 Mostly Sunny 80 26.7 71 21.7 74 74 SSW 8 13 29.93 1014 10 16.0934 0 0
9:52 am 09:52 Mostly Sunny 85 29.4 71 21.7 63 63 SSW 10 17 29.92 1013 10 16.0934 0 0
10:52 am 10:52 Partly Cloudy 88 31.1 71 21.7 57 57 WSW 12 19 29.91 1013 10 16.0934 0 0
11:52 am 11:52 Mostly Sunny 90 32.2 70 21.1 52 52 SW 17 28 29.89 1012 10 16.0934 0 0
12:52 pm 12:52 Partly Cloudy 91 32.8 71 21.7 52 52 WSW 12 19 29.87 1012 10 16.0934 0 0
1:52 pm 13:52 Mostly Cloudy 90 32.2 70 21.1 52 52 WSW 13 20 29.85 1011 10 16.0934 0 0
2:52 pm 14:52 Mostly Cloudy 93 33.9 72 22.2 50 50 SW 15 24 29.83 1010 10 16.0934 0 0
3:52 pm 15:52 Mostly Cloudy 91 32.8 72 22.2 54 54 WSW 16 26 29.81 1010 10 16.0934 0 0
5:52 pm 17:52 Mostly Cloudy 91 32.8 73 22.8 56 56 SW 16 26 29.78 1009 10 16.0934 0 0
6:52 pm 18:52 Mostly Cloudy 91 32.8 70 21.1 50 50 W 13 20 29.8 1009 10 16.0934 0 0
7:52 pm 19:52 Mostly Cloudy 88 31.1 72 22.2 59 59 SW 13 20 29.82 1010 10 16.0934 0 0
8:52 pm 20:52 Cloudy 86 30 69 20.6 57 57 WSW 8 13 29.85 1011 10 16.0934 0 0
9:52 pm 21:52 Cloudy 85 29.4 69 20.6 59 59 WSW 7 11 29.86 1011 10 16.0934 0 0
10:52 pm 22:52 Cloudy 86 30 68 20 55 55 W 9 15 29.85 1011 10 16.0934 0 0
11:52 pm 23:52 Cloudy 84 28.9 68 20 59 59 W 10 17 29.86 1011 10 16.0934 0 0

Powered by AerisWeather